Time,TemperatureF,DewpointF,PressureIn,WindDirection,WindDirectionDegrees,WindSpeedMPH,WindSpeedGustMPH,Humidity,HourlyPrecipIn,Conditions,Clouds,dailyrainin,SolarRadiationWatts/m^2,SoftwareType,DateUTC
2013-01-13 00:02:00,-2.0,-8.0,-100.00,ESE,120,0.0,2.0,76,0.00,,,0.00,1.000000,,2013-01-13 07:02:00,
2013-01-13 00:12:00,-2.0,-8.0,-100.00,ESE,120,0.0,2.0,76,0.00,,,0.00,1.000000,,2013-01-13 07:12:00,
2013-01-13 00:22:00,-2.0,-8.0,-100.00,ESE,120,0.0,2.0,76,0.00,,,0.00,1.000000,,2013-01-13 07:22:00,
2013-01-13 00:42:00,-4.0,-10.0,-100.00,West,279,1.0,2.0,74,0.00,,,0.00,1.000000,,2013-01-13 07:42:00,
2013-01-13 00:53:00,-4.0,-10.0,-100.00,West,279,1.0,2.0,74,0.00,,,0.00,1.000000,,2013-01-13 07:53:00,
2013-01-13 01:02:00,-4.0,-10.0,-100.00,West,279,1.0,2.0,74,0.00,,,0.00,1.000000,,2013-01-13 08:02:00,
2013-01-13 01:12:00,-4.0,-10.0,-100.00,West,279,1.0,2.0,74,0.00,,,0.00,1.000000,,2013-01-13 08:12:00,
2013-01-13 01:22:00,-4.0,-10.0,-100.00,West,279,1.0,2.0,74,0.00,,,0.00,1.000000,,2013-01-13 08:22:00,
2013-01-13 01:42:00,-6.0,-12.0,-100.00,NW,307,2.0,3.0,73,0.00,,,0.00,1.000000,,2013-01-13 08:42:00,
2013-01-13 01:53:00,-6.0,-12.0,-100.00,NW,307,2.0,3.0,73,0.00,,,0.00,1.000000,,2013-01-13 08:53:00,
2013-01-13 02:02:00,-6.0,-12.0,-100.00,NW,307,2.0,3.0,73,0.00,,,0.00,1.000000,,2013-01-13 09:02:00,
2013-01-13 02:12:00,-6.0,-12.0,-100.00,NW,307,2.0,3.0,73,0.00,,,0.00,1.000000,,2013-01-13 09:12:00,
2013-01-13 02:22:00,-6.0,-12.0,-100.00,NW,307,2.0,3.0,73,0.00,,,0.00,1.000000,,2013-01-13 09:22:00,
2013-01-13 02:42:00,-6.0,-12.0,-100.00,NW,319,1.0,3.0,73,0.00,,,0.00,1.000000,,2013-01-13 09:42:00,
2013-01-13 02:52:00,-6.0,-12.0,-100.00,NW,319,1.0,3.0,73,0.00,,,0.00,1.000000,,2013-01-13 09:52:00,
2013-01-13 03:02:00,-6.0,-12.0,-100.00,NW,319,1.0,3.0,73,0.00,,,0.00,1.000000,,2013-01-13 10:02:00,
2013-01-13 03:12:00,-6.0,-12.0,-100.00,NW,319,1.0,3.0,73,0.00,,,0.00,1.000000,,2013-01-13 10:12:00,
2013-01-13 03:22:00,-6.0,-12.0,-100.00,NW,319,1.0,3.0,73,0.00,,,0.00,1.000000,,2013-01-13 10:22:00,
2013-01-13 03:42:00,-7.0,-13.0,-100.00,SSW,210,1.0,3.0,73,0.00,,,0.00,1.000000,,2013-01-13 10:42:00,
2013-01-13 03:53:00,-7.0,-13.0,-100.00,SSW,210,1.0,3.0,73,0.00,,,0.00,1.000000,,2013-01-13 10:53:00,
2013-01-13 04:02:00,-7.0,-13.0,-100.00,SSW,210,1.0,3.0,73,0.00,,,0.00,1.000000,,2013-01-13 11:02:00,
2013-01-13 04:12:00,-7.0,-13.0,-100.00,SSW,210,1.0,3.0,73,0.00,,,0.00,1.000000,,2013-01-13 11:12:00,
2013-01-13 04:22:00,-7.0,-13.0,-100.00,SSW,210,1.0,3.0,73,0.00,,,0.00,1.000000,,2013-01-13 11:22:00,
2013-01-13 04:43:00,-7.0,-14.0,-100.00,WNW,299,1.0,3.0,72,0.00,,,0.00,1.000000,,2013-01-13 11:43:00,
2013-01-13 04:53:00,-7.0,-14.0,-100.00,WNW,299,1.0,3.0,72,0.00,,,0.00,1.000000,,2013-01-13 11:53:00,
2013-01-13 05:03:00,-7.0,-14.0,-100.00,WNW,299,1.0,3.0,72,0.00,,,0.00,1.000000,,2013-01-13 12:03:00,
2013-01-13 05:12:00,-7.0,-14.0,-100.00,WNW,299,1.0,3.0,72,0.00,,,0.00,1.000000,,2013-01-13 12:12:00,
2013-01-13 05:22:00,-7.0,-14.0,-100.00,WNW,299,1.0,3.0,72,0.00,,,0.00,1.000000,,2013-01-13 12:22:00,
2013-01-13 05:42:00,-7.0,-13.0,-100.00,WNW,298,0.0,2.0,73,0.00,,,0.00,1.000000,,2013-01-13 12:42:00,
2013-01-13 05:53:00,-7.0,-13.0,-100.00,WNW,298,0.0,2.0,73,0.00,,,0.00,1.000000,,2013-01-13 12:53:00,
2013-01-13 06:02:00,-7.0,-13.0,-100.00,WNW,298,0.0,2.0,73,0.00,,,0.00,1.000000,,2013-01-13 13:02:00,
2013-01-13 06:12:00,-7.0,-13.0,-100.00,WNW,298,0.0,2.0,73,0.00,,,0.00,1.000000,,2013-01-13 13:12:00,
2013-01-13 06:22:00,-7.0,-13.0,-100.00,WNW,298,0.0,2.0,73,0.00,,,0.00,1.000000,,2013-01-13 13:22:00,
2013-01-13 06:43:00,-8.0,-14.0,-100.00,West,276,0.0,2.0,73,0.00,,,0.00,1.000000,,2013-01-13 13:43:00,
2013-01-13 06:53:00,-8.0,-14.0,-100.00,West,276,0.0,2.0,73,0.00,,,0.00,1.000000,,2013-01-13 13:53:00,
2013-01-13 07:03:00,-8.0,-14.0,-100.00,West,276,0.0,2.0,73,0.00,,,0.00,1.000000,,2013-01-13 14:03:00,
2013-01-13 07:12:00,-8.0,-14.0,-100.00,West,276,0.0,2.0,73,0.00,,,0.00,1.000000,,2013-01-13 14:12:00,
2013-01-13 07:22:00,-8.0,-14.0,-100.00,West,276,0.0,2.0,73,0.00,,,0.00,1.000000,,2013-01-13 14:22:00,
2013-01-13 07:43:00,-8.0,-14.0,-100.00,NW,310,0.0,0.0,73,0.00,,,0.00,1.000000,,2013-01-13 14:43:00,
2013-01-13 07:53:00,-8.0,-14.0,-100.00,NW,310,0.0,0.0,73,0.00,,,0.00,1.000000,,2013-01-13 14:53:00,
2013-01-13 08:03:00,-8.0,-14.0,-100.00,NW,310,0.0,0.0,73,0.00,,,0.00,1.000000,,2013-01-13 15:03:00,
2013-01-13 08:12:00,-8.0,-14.0,-100.00,NW,310,0.0,0.0,73,0.00,,,0.00,1.000000,,2013-01-13 15:12:00,
2013-01-13 08:22:00,-8.0,-14.0,-100.00,NW,310,0.0,0.0,73,0.00,,,0.00,1.000000,,2013-01-13 15:22:00,
2013-01-13 08:43:00,-7.0,-13.0,-100.00,NNE,26,1.0,4.0,74,0.00,,,0.00,7.000000,,2013-01-13 15:43:00,
2013-01-13 08:53:00,-7.0,-13.0,-100.00,NNE,26,1.0,4.0,74,0.00,,,0.00,7.000000,,2013-01-13 15:53:00,
2013-01-13 09:03:00,-7.0,-13.0,-100.00,NNE,26,1.0,4.0,74,0.00,,,0.00,7.000000,,2013-01-13 16:03:00,
2013-01-13 09:12:00,-7.0,-13.0,-100.00,NNE,26,1.0,4.0,74,0.00,,,0.00,7.000000,,2013-01-13 16:12:00,
2013-01-13 09:22:00,-7.0,-13.0,-100.00,NNE,26,1.0,4.0,74,0.00,,,0.00,7.000000,,2013-01-13 16:22:00,
2013-01-13 09:43:00,-1.0,-9.0,-100.00,SSW,193,2.0,4.0,69,0.00,,,0.00,59.000000,,2013-01-13 16:43:00,
2013-01-13 09:53:00,-1.0,-9.0,-100.00,SSW,193,2.0,4.0,69,0.00,,,0.00,59.000000,,2013-01-13 16:53:00,
2013-01-13 10:03:00,-1.0,-9.0,-100.00,SSW,193,2.0,4.0,69,0.00,,,0.00,59.000000,,2013-01-13 17:03:00,
2013-01-13 10:12:00,-1.0,-9.0,-100.00,SSW,193,2.0,4.0,69,0.00,,,0.00,59.000000,,2013-01-13 17:12:00,
2013-01-13 10:22:00,-1.0,-9.0,-100.00,SSW,193,2.0,4.0,69,0.00,,,0.00,59.000000,,2013-01-13 17:22:00,
2013-01-13 10:43:00,4.0,-5.0,-100.00,SE,127,2.0,5.0,65,0.00,,,0.00,128.000000,,2013-01-13 17:43:00,
2013-01-13 10:53:00,4.0,-5.0,-100.00,SE,127,2.0,5.0,65,0.00,,,0.00,128.000000,,2013-01-13 17:53:00,
2013-01-13 11:03:00,4.0,-5.0,-100.00,SE,127,2.0,5.0,65,0.00,,,0.00,128.000000,,2013-01-13 18:03:00,
2013-01-13 11:12:00,4.0,-5.0,-100.00,SE,127,2.0,5.0,65,0.00,,,0.00,128.000000,,2013-01-13 18:12:00,
2013-01-13 11:22:00,4.0,-5.0,-100.00,SE,127,2.0,5.0,65,0.00,,,0.00,128.000000,,2013-01-13 18:22:00,
2013-01-13 11:43:00,8.0,-4.0,-100.00,ENE,77,5.0,8.0,58,0.00,,,0.00,257.000000,,2013-01-13 18:43:00,
2013-01-13 11:53:00,8.0,-4.0,-100.00,ENE,77,5.0,8.0,58,0.00,,,0.00,257.000000,,2013-01-13 18:53:00,
2013-01-13 12:03:00,8.0,-4.0,-100.00,ENE,77,5.0,8.0,58,0.00,,,0.00,257.000000,,2013-01-13 19:03:00,
2013-01-13 12:12:00,8.0,-4.0,-100.00,ENE,77,5.0,8.0,58,0.00,,,0.00,257.000000,,2013-01-13 19:12:00,
2013-01-13 12:22:00,8.0,-4.0,-100.00,ENE,77,5.0,8.0,58,0.00,,,0.00,257.000000,,2013-01-13 19:22:00,
2013-01-13 12:43:00,8.0,-4.0,-100.00,ENE,64,6.0,12.0,58,0.00,,,0.00,242.000000,,2013-01-13 19:43:00,
2013-01-13 12:53:00,8.0,-4.0,-100.00,ENE,64,6.0,12.0,58,0.00,,,0.00,242.000000,,2013-01-13 19:53:00,
2013-01-13 13:03:00,8.0,-4.0,-100.00,ENE,64,6.0,12.0,58,0.00,,,0.00,242.000000,,2013-01-13 20:03:00,
2013-01-13 13:12:00,8.0,-4.0,-100.00,ENE,64,6.0,12.0,58,0.00,,,0.00,242.000000,,2013-01-13 20:12:00,
2013-01-13 13:22:00,8.0,-4.0,-100.00,ENE,64,6.0,12.0,58,0.00,,,0.00,242.000000,,2013-01-13 20:22:00,
2013-01-13 13:43:00,10.0,-4.0,-100.00,ENE,60,8.0,13.0,51,0.00,,,0.00,350.000000,,2013-01-13 20:43:00,
2013-01-13 13:53:00,10.0,-4.0,-100.00,ENE,60,8.0,13.0,51,0.00,,,0.00,350.000000,,2013-01-13 20:53:00,
2013-01-13 14:03:00,10.0,-4.0,-100.00,ENE,60,8.0,13.0,51,0.00,,,0.00,350.000000,,2013-01-13 21:03:00,
2013-01-13 14:12:00,10.0,-4.0,-100.00,ENE,60,8.0,13.0,51,0.00,,,0.00,350.000000,,2013-01-13 21:12:00,
2013-01-13 14:23:00,10.0,-4.0,-100.00,ENE,60,8.0,13.0,51,0.00,,,0.00,350.000000,,2013-01-13 21:23:00,
2013-01-13 14:43:00,8.0,-4.0,-100.00,ENE,69,8.0,11.0,57,0.00,,,0.00,304.000000,,2013-01-13 21:43:00,
2013-01-13 14:53:00,8.0,-4.0,-100.00,ENE,69,8.0,11.0,57,0.00,,,0.00,304.000000,,2013-01-13 21:53:00,
2013-01-13 15:02:00,8.0,-4.0,-100.00,ENE,69,8.0,11.0,57,0.00,,,0.00,304.000000,,2013-01-13 22:02:00,
2013-01-13 15:12:00,8.0,-4.0,-100.00,ENE,69,8.0,11.0,57,0.00,,,0.00,304.000000,,2013-01-13 22:12:00,
2013-01-13 15:22:00,8.0,-4.0,-100.00,ENE,69,8.0,11.0,57,0.00,,,0.00,304.000000,,2013-01-13 22:22:00,
2013-01-13 15:53:00,5.0,-5.0,-100.00,ENE,76,6.0,13.0,63,0.00,,,0.00,161.000000,,2013-01-13 22:53:00,
2013-01-13 16:02:00,5.0,-5.0,-100.00,ENE,76,6.0,13.0,63,0.00,,,0.00,161.000000,,2013-01-13 23:02:00,
2013-01-13 16:12:00,5.0,-5.0,-100.00,ENE,76,6.0,13.0,63,0.00,,,0.00,161.000000,,2013-01-13 23:12:00,
2013-01-13 16:22:00,5.0,-5.0,-100.00,ENE,76,6.0,13.0,63,0.00,,,0.00,161.000000,,2013-01-13 23:22:00,
2013-01-13 16:43:00,3.0,-5.0,-100.00,East,82,5.0,11.0,70,0.00,,,0.00,70.000000,,2013-01-13 23:43:00,
2013-01-13 16:53:00,3.0,-5.0,-100.00,East,82,5.0,11.0,70,0.00,,,0.00,70.000000,,2013-01-13 23:53:00,
2013-01-13 17:03:00,3.0,-5.0,-100.00,East,82,5.0,11.0,70,0.00,,,0.00,70.000000,,2013-01-14 00:03:00,
2013-01-13 17:12:00,3.0,-5.0,-100.00,East,82,5.0,11.0,70,0.00,,,0.00,70.000000,,2013-01-14 00:12:00,
2013-01-13 17:22:00,3.0,-5.0,-100.00,East,82,5.0,11.0,70,0.00,,,0.00,70.000000,,2013-01-14 00:22:00,
2013-01-13 17:43:00,1.0,-6.0,-100.00,ENE,71,6.0,11.0,73,0.00,,,0.00,25.000000,,2013-01-14 00:43:00,
2013-01-13 17:53:00,1.0,-6.0,-100.00,ENE,71,6.0,11.0,73,0.00,,,0.00,25.000000,,2013-01-14 00:53:00,
2013-01-13 18:03:00,1.0,-6.0,-100.00,ENE,71,6.0,11.0,73,0.00,,,0.00,25.000000,,2013-01-14 01:03:00,
2013-01-13 18:12:00,1.0,-6.0,-100.00,ENE,71,6.0,11.0,73,0.00,,,0.00,25.000000,,2013-01-14 01:12:00,
2013-01-13 18:22:00,1.0,-6.0,-100.00,ENE,71,6.0,11.0,73,0.00,,,0.00,25.000000,,2013-01-14 01:22:00,
2013-01-13 18:42:00,0.0,-6.0,-100.00,NE,52,3.0,8.0,75,0.00,,,0.00,1.000000,,2013-01-14 01:42:00,
2013-01-13 18:53:00,0.0,-6.0,-100.00,NE,52,3.0,8.0,75,0.00,,,0.00,1.000000,,2013-01-14 01:53:00,
2013-01-13 19:03:00,0.0,-6.0,-100.00,NE,52,3.0,8.0,75,0.00,,,0.00,1.000000,,2013-01-14 02:03:00,
2013-01-13 19:12:00,0.0,-6.0,-100.00,NE,52,3.0,8.0,75,0.00,,,0.00,1.000000,,2013-01-14 02:12:00,
2013-01-13 19:22:00,0.0,-6.0,-100.00,NE,52,3.0,8.0,75,0.00,,,0.00,1.000000,,2013-01-14 02:22:00,
2013-01-13 19:43:00,0.0,-6.0,-100.00,ENE,61,3.0,6.0,75,0.00,,,0.00,1.000000,,2013-01-14 02:43:00,
2013-01-13 19:53:00,0.0,-6.0,-100.00,ENE,61,3.0,6.0,75,0.00,,,0.00,1.000000,,2013-01-14 02:53:00,
2013-01-13 20:02:00,0.0,-6.0,-100.00,ENE,61,3.0,6.0,75,0.00,,,0.00,1.000000,,2013-01-14 03:02:00,
2013-01-13 20:12:00,0.0,-6.0,-100.00,ENE,61,3.0,6.0,75,0.00,,,0.00,1.000000,,2013-01-14 03:12:00,
2013-01-13 20:22:00,0.0,-6.0,-100.00,ENE,61,3.0,6.0,75,0.00,,,0.00,1.000000,,2013-01-14 03:22:00,
2013-01-13 20:43:00,-1.0,-7.0,-100.00,South,173,1.0,6.0,76,0.00,,,0.00,1.000000,,2013-01-14 03:43:00,
2013-01-13 20:53:00,-1.0,-7.0,-100.00,South,173,1.0,6.0,76,0.00,,,0.00,1.000000,,2013-01-14 03:53:00,
2013-01-13 21:02:00,-1.0,-7.0,-100.00,South,173,1.0,6.0,76,0.00,,,0.00,1.000000,,2013-01-14 04:02:00,
2013-01-13 21:12:00,-1.0,-7.0,-100.00,South,173,1.0,6.0,76,0.00,,,0.00,1.000000,,2013-01-14 04:12:00,
2013-01-13 21:22:00,-1.0,-7.0,-100.00,South,173,1.0,6.0,76,0.00,,,0.00,1.000000,,2013-01-14 04:22:00,
2013-01-13 21:42:00,-7.0,-14.0,-100.00,NW,307,2.0,3.0,72,0.00,,,0.00,1.000000,,2013-01-14 04:42:00,
2013-01-13 21:53:00,-7.0,-14.0,-100.00,NW,307,2.0,3.0,72,0.00,,,0.00,1.000000,,2013-01-14 04:53:00,
2013-01-13 22:04:00,-7.0,-14.0,-100.00,NW,307,2.0,3.0,72,0.00,,,0.00,1.000000,,2013-01-14 05:04:00,
2013-01-13 22:12:00,-7.0,-14.0,-100.00,NW,307,2.0,3.0,72,0.00,,,0.00,1.000000,,2013-01-14 05:12:00,
2013-01-13 22:22:00,-7.0,-14.0,-100.00,NW,307,2.0,3.0,72,0.00,,,0.00,1.000000,,2013-01-14 05:22:00,
2013-01-13 22:43:00,-10.0,-17.0,-100.00,NW,311,1.0,3.0,71,0.00,,,0.00,1.000000,,2013-01-14 05:43:00,
2013-01-13 22:53:00,-10.0,-17.0,-100.00,NW,311,1.0,3.0,71,0.00,,,0.00,1.000000,,2013-01-14 05:53:00,
2013-01-13 23:03:00,-10.0,-17.0,-100.00,NW,311,1.0,3.0,71,0.00,,,0.00,1.000000,,2013-01-14 06:03:00,
2013-01-13 23:12:00,-10.0,-17.0,-100.00,NW,311,1.0,3.0,71,0.00,,,0.00,1.000000,,2013-01-14 06:12:00,
2013-01-13 23:22:00,-10.0,-17.0,-100.00,NW,311,1.0,3.0,71,0.00,,,0.00,1.000000,,2013-01-14 06:22:00,
2013-01-13 23:43:00,-11.0,-17.0,-100.00,WNW,301,1.0,3.0,72,0.00,,,0.00,1.000000,,2013-01-14 06:43:00,
2013-01-13 23:53:00,-11.0,-17.0,-100.00,WNW,301,1.0,3.0,72,0.00,,,0.00,1.000000,,2013-01-14 06:53:00,